Find Starlink 11441

NORAD ID: 62413 Int'l Des: 2024-249 Owner: SPXS Country: US Constellation: starlink operational
LEOCIRCULAR

Live-Position

3D-Globus wird geladen...

Über Starlink 11441

Beschreibung wird geladen...

Nächste Überflüge

Passes for default location (London). Set your location on the main map for personalized predictions.

Höhenverlauf

Loading altitude history...

Zweizeiliger Elementsatz

1 62413U 24249E 26124.16668980 .00027776 00000-0 21954-3 0 9999
2 62413 43.0003 192.9729 0001675 260.1690 289.5751 15.70805707 6069
Epoch: 4. Mai 2026 • Age: 9 hours

Aktueller Status

Höhe 360.8 km
Geschwindigkeit 7.70 km/s
Subsatellitenpunkt 43.08°N, 136.78°W
Startdatum 23. Dez. 2024
Alter 1.3 years
Typ internet

Technische Details

Klassifizierung Payload
Masse 960.00 kg
Trockenmasse 910.00 kg
Gesamtmasse 960.00 kg
Länge 0.30 m
Durchmesser 4.10 m
Spannweite 29.00 m
Form Box + pan
Hersteller SPXS
Bus-Typ Starlink V2MD
Phasenstatus In Orbit
Besitzer/Staat SPXS/US

Most Searched